Weather History for Casper, WY

Change the Weather History Date:

Thursday, January 5, 2012

  Actual Average Record
Temperature  
Mean Temperature 43 °F 24 °F  
Max Temperature 51 °F 35 °F 51 °F (2012)
Min Temperature 34 °F 14 °F -24 °F (2014)
Degree Days  
Heating Degree Days 22 41  
Month to date heating degree days 164 205  
Since 1 July heating degree days 3064 3334  
Cooling Degree Days 0 0  
Month to date cooling degree days 0 0  
Year to date cooling degree days 0 0  
Moisture  
Dew Point 19 °F    
Average Humidity 42    
Maximum Humidity 54    
Minimum Humidity 30    
Precipitation  
Precipitation 0.00 in 0.01 in 0.53 in (1987)
Month to date precipitation 0.00 0.08  
Year to date precipitation 0.00 0.08  
Snow  
Snow 0.00 in 0.30 in - ()
Month to date snowfall 0.0 1.6  
Since 1 July snowfall 26.7 32.1  
Snow Depth 0.00 in    
Sea Level Pressure  
Sea Level Pressure 30.03 in    
Wind  
Wind Speed 21 mph (SW)    
Max Wind Speed 27 mph    
Max Gust Speed 40 mph    
Visibility 10 miles    
Events      
T = Trace of Precipitation, MM = Missing Value Source: NWS Daily Summary

Daily Weather History Graph

Daily Weather History Graph

Search for Another Location

Airport:

Trip Planner

Search our weather history database for the weather conditions in past years. The results will help you decide how hot, cold, wet, or windy it might be!

Date:

Astronomy

Jan. 05, 2012 Rise Set
Actual Time 7:36 AM MST 4:45 PM MST
Civil Twilight 7:04 AM MST 5:17 PM MST
Nautical Twilight 6:29 AM MST 5:53 PM MST
Astronomical Twilight 5:55 AM MST 6:27 PM MST
Moon 1:51 PM MST (1/5) 4:24 AM MST (1/5)
Length of Visible Light 10h 12m
Length of Day
9h 08m
Waxing Gibbous, 88% of the Moon is Illuminated
Jan 5
Waxing Gibbous
Jan 9
Full
Jan 16
Last Quarter
Jan 23
New
Jan 30
First Quarter

Hourly Weather History & Observations

Time (MST) Temp. Windchill Dew Point Humidity Pressure Visibility Wind Dir Wind Speed Gust Speed Precip Events Conditions
12:53 AM 42.1 °F 32.3 °F 17.1 °F 37% 30.23 in 10.0 mi SSW 24.2 mph 33.4 mph N/A   Clear
1:53 AM 41.0 °F 31.1 °F 16.0 °F 36% 30.21 in 10.0 mi SSW 23.0 mph 27.6 mph N/A   Clear
2:53 AM 41.0 °F 30.5 °F 16.0 °F 36% 30.19 in 10.0 mi SW 26.5 mph 38.0 mph N/A   Clear
3:53 AM 39.9 °F 29.0 °F 16.0 °F 38% 30.16 in 10.0 mi SW 26.5 mph 35.7 mph N/A   Clear
4:53 AM 41.0 °F 32.5 °F 16.0 °F 36% 30.17 in 10.0 mi SW 17.3 mph 26.5 mph N/A   Clear
5:53 AM 41.0 °F 32.5 °F 15.1 °F 35% 30.17 in 10.0 mi SW 17.3 mph - N/A   Clear
6:53 AM 37.0 °F 28.5 °F 16.0 °F 42% 30.16 in 10.0 mi SW 13.8 mph - N/A   Clear
7:53 AM 39.0 °F 28.5 °F 15.1 °F 38% 30.14 in 10.0 mi SSW 23.0 mph 28.8 mph N/A   Clear
8:53 AM 42.1 °F 32.1 °F 16.0 °F 35% 30.13 in 10.0 mi SSW 25.3 mph 34.5 mph N/A   Clear
9:53 AM 44.6 °F 35.9 °F 15.8 °F 31% 30.14 in 10.0 mi SW 23.0 mph 35.7 mph N/A   Clear
10:53 AM 45.0 °F 36.2 °F 17.1 °F 33% 30.08 in 10.0 mi SSW 24.2 mph 31.1 mph N/A   Clear
11:53 AM 46.9 °F - 19.0 °F 33% 30.01 in 10.0 mi SW 23.0 mph 36.8 mph N/A   Clear
12:53 PM 48.9 °F - 19.0 °F 31% 29.97 in 10.0 mi SW 23.0 mph 32.2 mph N/A   Clear
1:53 PM 50.0 °F - 21.0 °F 32% 29.94 in 10.0 mi SW 26.5 mph 29.9 mph N/A   Clear
2:53 PM 51.1 °F - 21.0 °F 31% 29.92 in 10.0 mi SW 21.9 mph 28.8 mph N/A   Clear
3:53 PM 48.9 °F - 21.0 °F 33% 29.92 in 10.0 mi SW 21.9 mph 28.8 mph N/A   Clear
4:53 PM 46.0 °F 37.8 °F 21.0 °F 37% 29.91 in 10.0 mi SW 23.0 mph - N/A   Clear
5:53 PM 44.1 °F 35.0 °F 21.0 °F 40% 29.89 in 10.0 mi SW 24.2 mph 31.1 mph N/A   Clear
6:53 PM 42.1 °F 33.6 °F 21.0 °F 43% 29.91 in 10.0 mi SW 18.4 mph - N/A   Clear
7:53 PM 41.0 °F 32.8 °F 21.0 °F 45% 29.91 in 10.0 mi SW 16.1 mph - N/A   Clear
8:53 PM 42.1 °F 33.6 °F 21.0 °F 43% 29.88 in 10.0 mi SW 18.4 mph - N/A   Clear
9:53 PM 42.1 °F 35.2 °F 21.0 °F 43% 29.90 in 10.0 mi WSW 12.7 mph - N/A   Clear
10:53 PM 37.0 °F 31.6 °F 23.0 °F 57% 29.92 in 10.0 mi WNW 6.9 mph - N/A   Clear
11:53 PM 34.0 °F 26.6 °F 24.1 °F 67% 29.94 in 10.0 mi NNW 9.2 mph - N/A   Clear